Torna al catalogo

STARLINK-4191

AttivoComunicazioniVLEO
NORAD 52860·PAYLOAD·🇺🇸 United States

Lanciato Jun 17, 2022 da Cape Canaveral Space Force Station

Loading…

Prossimi Passaggi (prossime 24 ore)

TLE

AggiornatoSource: CelesTrak SupGP

Epoca: Sep 14, 2026, 14:31 UTC

1 52860C 22062AG  26257.60534722 -.00035590  00000+0 -10183-2 0  2579
2 52860  53.1575 245.0168 0001279  87.9013 232.8367 15.35415154    18

Traccia STARLINK-4191 in tempo reale con AllMySat

Download on the App Store